STARLINK-30086 (56297 NORAD) Tracking and Keplerian Element Data

This shows tracking and keplerian element data for the satellite.

Feedback or suggestion? Click here.




ElementValue
Catalog56297
NameSTARLINK-30086
Epoch Orbit325
Epoch Day127.25001157
Epoch Year2023
RAAN97.2613
Inclination43.0022
Eccentricity0.0001232
Argument of Perigee264.2115
Mean Anonmoly329.5006
Mean Motion15.51883158
Decay Rate-0.00635383
L11 56297U 23056M 23127.25001157 -.00635383 00000+0 -11194-1 0 9997
L22 56297 43.0022 97.2613 0001232 264.2115 329.5006 15.51883158 3259



Live tracking and technical data element details for STARLINK-30086 (NORAD 56297). STARLINK-30086 can be tracked NOW for your location showing map with azimuth and elevation plus other details from your city location.







IsCatalogInMostPopularTable: catalog: 56297, numindb: 6
Update: records affected: 1



GetName: 56297 STARLINK-30086

Hit Count: updated at: Wed, 07 Jun 2023 08:00:24 GMT